TimeGMT,TemperatureF,Dew PointF,Humidity,Sea Level PressureIn,VisibilityMPH,Wind Direction,Wind SpeedMPH,Gust SpeedMPH,PrecipitationIn,Events,Conditions,WindDirDegrees,DateUTC
12:00 AM,52,45,69,29.18,11,SW,31.3,,,,Partly Cloudy,220,2012-12-23 00:00:00
12:00 AM,51.8,44.6,76,29.18,6.2,SW,31.1,47.2,N/A,,Mostly Cloudy,220,2012-12-23 00:00:00
12:30 AM,51.8,42.8,71,29.18,6.2,SW,40.3,56.4,N/A,,Mostly Cloudy,230,2012-12-23 00:30:00
1:00 AM,48.2,42.8,82,29.21,3.7,SW,43.7,58.7,N/A,Rain,Light Rain,230,2012-12-23 01:00:00
1:30 AM,48.2,42.8,82,29.27,6.2,WSW,36.8,48.3,N/A,Rain,Light Rain,250,2012-12-23 01:30:00
2:00 AM,48.2,42.8,82,29.30,5.6,WSW,38.0,54.1,N/A,Rain,Light Rain,250,2012-12-23 02:00:00
2:30 AM,46.4,42.8,87,29.30,6.2,WSW,27.6,-,N/A,Rain,Light Rain,250,2012-12-23 02:30:00
3:00 AM,46.4,42.8,87,29.33,6.2,WSW,26.5,-,N/A,,Mostly Cloudy,250,2012-12-23 03:00:00
3:30 AM,46.4,42.8,87,29.36,4.3,WSW,25.3,39.1,N/A,Rain,Light Rain Showers,250,2012-12-23 03:30:00
4:00 AM,46.4,42.8,87,29.39,6.2,West,21.9,-,N/A,,Partly Cloudy,260,2012-12-23 04:00:00
4:30 AM,46.4,41.0,81,29.39,6.2,WSW,23.0,-,N/A,,Scattered Clouds,250,2012-12-23 04:30:00
5:00 AM,46.4,41.0,81,29.39,6.2,WSW,19.6,-,N/A,,Scattered Clouds,250,2012-12-23 05:00:00
5:30 AM,48.2,41.0,76,29.42,6.2,WSW,18.4,-,N/A,,Partly Cloudy,250,2012-12-23 05:30:00
6:00 AM,47,41,73,29.44,12,WSW,17.9,,,,Partly Cloudy,250,2012-12-23 06:00:00
6:00 AM,46.4,41.0,81,29.44,6.2,WSW,18.4,-,N/A,,Scattered Clouds,250,2012-12-23 06:00:00
6:30 AM,46.4,41.0,81,29.44,6.2,WSW,17.3,-,N/A,,Scattered Clouds,240,2012-12-23 06:30:00
7:00 AM,44.6,41.0,87,29.47,6.2,SW,18.4,-,N/A,,Partly Cloudy,230,2012-12-23 07:00:00
7:30 AM,44.6,42.8,93,29.47,6.2,SW,13.8,-,N/A,,Scattered Clouds,230,2012-12-23 07:30:00
8:00 AM,44.6,42.8,93,29.47,6.2,SW,12.7,-,N/A,,Scattered Clouds,230,2012-12-23 08:00:00
8:30 AM,46.4,42.8,87,29.50,6.2,SW,13.8,-,N/A,,Partly Cloudy,230,2012-12-23 08:30:00
9:00 AM,44.6,42.8,93,29.50,6.2,SW,12.7,-,N/A,,Mostly Cloudy,220,2012-12-23 09:00:00
9:30 AM,44.6,44.6,100,29.53,6.2,SSW,8.1,-,N/A,,Mostly Cloudy,210,2012-12-23 09:30:00
10:00 AM,46.4,42.8,87,29.53,6.2,SW,10.4,-,N/A,,Mostly Cloudy,220,2012-12-23 10:00:00
10:30 AM,46.4,44.6,93,29.53,6.2,SW,8.1,-,N/A,,Mostly Cloudy,220,2012-12-23 10:30:00
11:00 AM,48.2,42.8,82,29.56,6.2,SW,11.5,-,N/A,,Mostly Cloudy,220,2012-12-23 11:00:00
11:30 AM,48.2,42.8,82,29.56,6.2,SW,9.2,-,N/A,,Mostly Cloudy,220,2012-12-23 11:30:00
12:00 PM,48,43,77,29.57,16,SSW,8.9,,,,Partly Cloudy,210,2012-12-23 12:00:00
12:00 PM,48.2,42.8,82,29.56,6.2,SSW,8.1,-,N/A,,Mostly Cloudy,210,2012-12-23 12:00:00
12:30 PM,48.2,42.8,82,29.56,6.2,SSW,8.1,-,N/A,,Mostly Cloudy,200,2012-12-23 12:30:00
1:00 PM,48.2,42.8,82,29.56,6.2,South,10.4,-,N/A,,Mostly Cloudy,190,2012-12-23 13:00:00
1:30 PM,50.0,44.6,82,29.56,6.2,SSW,10.4,-,N/A,,Mostly Cloudy,210,2012-12-23 13:30:00
2:00 PM,50.0,44.6,82,29.56,6.2,SW,10.4,-,N/A,,Partly Cloudy,220,2012-12-23 14:00:00
2:30 PM,50.0,44.6,82,29.53,6.2,SSW,10.4,-,N/A,,Scattered Clouds,210,2012-12-23 14:30:00
3:00 PM,50.0,44.6,82,29.56,6.2,SW,13.8,-,N/A,,Partly Cloudy,220,2012-12-23 15:00:00
3:30 PM,48.2,42.8,82,29.53,6.2,SSW,10.4,-,N/A,,Partly Cloudy,210,2012-12-23 15:30:00
4:00 PM,48.2,42.8,82,29.53,6.2,SSW,10.4,-,N/A,,Partly Cloudy,210,2012-12-23 16:00:00
4:30 PM,48.2,42.8,82,29.53,6.2,SSW,8.1,-,N/A,,Partly Cloudy,200,2012-12-23 16:30:00
5:00 PM,46.4,42.8,87,29.56,6.2,South,8.1,-,N/A,,Partly Cloudy,190,2012-12-23 17:00:00
5:30 PM,44.6,42.8,93,29.53,6.2,SE,9.2,-,N/A,,Partly Cloudy,130,2012-12-23 17:30:00
6:00 PM,46,43,84,29.56,16,South,11.2,,,,Scattered Clouds,170,2012-12-23 18:00:00
6:00 PM,46.4,42.8,87,29.53,6.2,South,10.4,-,N/A,,Partly Cloudy,170,2012-12-23 18:00:00
6:30 PM,44.6,42.8,93,29.53,6.2,South,9.2,-,N/A,,Partly Cloudy,170,2012-12-23 18:30:00
7:00 PM,44.6,42.8,93,29.56,-9999.0,South,11.5,-,N/A,,Clear,170,2012-12-23 19:00:00
7:30 PM,44.6,41.0,87,29.53,-9999.0,SSE,8.1,-,N/A,,Clear,160,2012-12-23 19:30:00
8:00 PM,44.6,41.0,87,29.53,-9999.0,SSE,9.2,-,N/A,,Clear,160,2012-12-23 20:00:00
8:30 PM,44.6,41.0,87,29.53,-9999.0,SSE,10.4,-,N/A,,Clear,150,2012-12-23 20:30:00
9:00 PM,44.6,41.0,87,29.53,-9999.0,SE,10.4,-,N/A,,Clear,140,2012-12-23 21:00:00
9:30 PM,44.6,41.0,87,29.53,-9999.0,SE,10.4,-,N/A,,Clear,140,2012-12-23 21:30:00
10:00 PM,44.6,41.0,87,29.53,-9999.0,ESE,6.9,-,N/A,,Clear,120,2012-12-23 22:00:00
10:30 PM,44.6,42.8,93,29.50,-9999.0,East,6.9,-,N/A,,Clear,100,2012-12-23 22:30:00
11:00 PM,44.6,42.8,93,29.50,-9999.0,SE,10.4,-,N/A,,Clear,140,2012-12-23 23:00:00
11:30 PM,44.6,42.8,93,29.50,6.2,SE,12.7,-,N/A,,Mostly Cloudy,140,2012-12-23 23:30:00